This demonstration page uses our WeatherBlox Daily Observations layout. Learn more.

39.08367, -84.50855

Hourly Observations for January 22, 2020

Temp ( °F °C ) Dew Point ( °F °C ) Humidity (%) Winds ( mph kmh ) Pressure ( in mb ) Visibility ( mi km ) Precip ( " mm )
12:53 am 00:53 Clear 18 -7.8 15 -9.4 88 88 Calm 30.52 1034 9 14.48406 0 0
1:53 am 01:53 Clear 18 -7.8 15 -9.4 88 88 Calm 30.5 1033 9 14.48406 0 0
2:53 am 02:53 Clear 17 -8.3 14 -10 88 88 Calm 30.49 1033 8 12.87472 0 0
3:53 am 03:53 Clear 16 -8.9 14 -10 92 92 Calm 30.48 1032 10 16.0934 0 0
4:53 am 04:53 Clear 16 -8.9 13 -10.6 88 88 Calm 30.47 1032 9 14.48406 0 0
5:53 am 05:53 Clear 15 -9.4 12 -11.1 88 88 Calm 30.46 1032 9 14.48406 0 0
6:53 am 06:53 Clear 14 -10 11 -11.7 88 88 Calm 30.47 1032 10 16.0934 0 0
7:53 am 07:53 Sunny 14 -10 12 -11.1 92 92 Calm 30.46 1031 9 14.48406 0 0
8:53 am 08:53 Sunny 18 -7.8 16 -8.9 92 92 Calm 30.45 1031 8 12.87472 0 0
9:53 am 09:53 Sunny with Mist and Fog 23 -5 18 -7.8 81 81 SW 3 6 30.46 1031 6 9.65604 0 0
10:53 am 10:53 Sunny 29 -1.7 19 -7.2 66 66 SSW 3 6 30.46 1032 10 16.0934 0 0
11:53 am 11:53 Sunny 33 0.6 19 -7.2 56 56 SSW 7 11 30.46 1032 10 16.0934 0 0
12:53 pm 12:53 Sunny 34 1.1 17 -8.3 50 50 SSW 6 9 30.42 1030 10 16.0934 0 0
1:53 pm 13:53 Sunny 37 2.8 17 -8.3 44 44 SE 6 9 30.38 1029 10 16.0934 0 0
2:53 pm 14:53 Sunny 39 3.9 16 -8.9 39 39 S 5 7 30.35 1028 10 16.0934 0 0
3:53 pm 15:53 Sunny 40 4.4 16 -8.9 38 38 SSE 5 7 30.33 1027 10 16.0934 0 0
4:53 pm 16:53 Sunny 40 4.4 15 -9.4 36 36 SE 3 6 30.32 1027 10 16.0934 0 0
5:53 pm 17:53 Clear 36 2.2 16 -8.9 44 44 Calm 30.32 1027 10 16.0934 0 0
6:53 pm 18:53 Clear 31 -0.6 21 -6.1 67 67 Calm 30.32 1027 10 16.0934 0 0
7:53 pm 19:53 Clear 30 -1.1 21 -6.1 69 69 Calm 30.32 1027 10 16.0934 0 0
8:53 pm 20:53 Clear 30 -1.1 23 -5 75 75 Calm 30.32 1027 10 16.0934 0 0
9:53 pm 21:53 Clear 29 -1.7 22 -5.6 75 75 Calm 30.3 1026 10 16.0934 0 0
10:53 pm 22:53 Clear 28 -2.2 22 -5.6 78 78 Calm 30.3 1026 10 16.0934 0 0
11:53 pm 23:53 Clear 27 -2.8 22 -5.6 81 81 NNE 3 6 30.29 1026 10 16.0934 0 0

Powered by AerisWeather